PGT41JT LTFJ-HESH

Flight info

Callsign PGT41JT
Flight time 2h 2m
Altitude 37000
Route ROXUK UN617 IRGAK UM855 TOMBI M855 RASDA A16 BLT Y851 SISIK V603 ALSOB ALSOB1G
Aircraft B738/M-SDE2E3FGIRWXY/LB1

Departure

Time 2026-05-05 13:46
Airport Istanbul Sabiha Gökçen International Airport (LTFJ)

Arrival

Time 2026-05-05 15:48
Airport Sharm El Sheikh International Airport (HESH)
Time Latitude Longitude Altitude Speed Heading
2026-05-05 12:48 40.90470 29.31727 320 ft 0 kts 154°
2026-05-05 13:18 40.90470 29.31726 320 ft 0 kts 154°
2026-05-05 13:26 40.90473 29.31724 320 ft 3 kts 153°
2026-05-05 13:26 40.90497 29.31707 319 ft 4 kts 145°
2026-05-05 13:26 40.90517 29.31685 318 ft 4 kts 129°
2026-05-05 13:27 40.90528 29.31657 320 ft 4 kts 83°
2026-05-05 13:27 40.90526 29.31646 320 ft 2 kts 64°
2026-05-05 13:29 40.90526 29.31647 320 ft 1 kts 64°
2026-05-05 13:30 40.90540 29.31685 319 ft 9 kts 64°
2026-05-05 13:30 40.90576 29.31781 320 ft 12 kts 64°
2026-05-05 13:30 40.90611 29.31879 320 ft 10 kts 64°
2026-05-05 13:30 40.90576 29.31942 319 ft 10 kts 154°
2026-05-05 13:31 40.90515 29.31982 320 ft 10 kts 154°
2026-05-05 13:31 40.90480 29.32044 320 ft 9 kts 79°
2026-05-05 13:31 40.90514 29.32140 319 ft 16 kts 64°
2026-05-05 13:31 40.90571 29.32296 319 ft 20 kts 64°
2026-05-05 13:32 40.90584 29.32401 320 ft 10 kts 116°
2026-05-05 13:32 40.90530 29.32455 319 ft 10 kts 154°
2026-05-05 13:32 40.90458 29.32501 318 ft 15 kts 153°
2026-05-05 13:32 40.90361 29.32565 319 ft 15 kts 153°
2026-05-05 13:33 40.90284 29.32576 319 ft 10 kts 224°
2026-05-05 13:33 40.90252 29.32495 319 ft 11 kts 244°
2026-05-05 13:33 40.90206 29.32369 320 ft 19 kts 243°
2026-05-05 13:33 40.90145 29.32205 319 ft 20 kts 244°
2026-05-05 13:34 40.90094 29.32069 319 ft 10 kts 238°
2026-05-05 13:34 40.90033 29.32064 318 ft 11 kts 153°
2026-05-05 13:34 40.89942 29.32122 313 ft 15 kts 154°
2026-05-05 13:34 40.89847 29.32182 310 ft 15 kts 154°
2026-05-05 13:35 40.89753 29.32244 307 ft 15 kts 154°
2026-05-05 13:35 40.89661 29.32303 307 ft 15 kts 153°
2026-05-05 13:35 40.89580 29.32347 306 ft 10 kts 178°
2026-05-05 13:35 40.89515 29.32369 306 ft 10 kts 153°
2026-05-05 13:36 40.89498 29.32389 306 ft 10 kts 124°
2026-05-05 13:36 40.89550 29.32579 307 ft 20 kts 64°
2026-05-05 13:36 40.89611 29.32746 306 ft 20 kts 65°
2026-05-05 13:36 40.89671 29.32907 305 ft 19 kts 62°
2026-05-05 13:37 40.89729 29.33066 305 ft 20 kts 64°
2026-05-05 13:37 40.89790 29.33228 303 ft 19 kts 63°
2026-05-05 13:37 40.89847 29.33384 302 ft 19 kts 64°
2026-05-05 13:37 40.89894 29.33514 305 ft 9 kts 64°
2026-05-05 13:38 40.89922 29.33592 309 ft 9 kts 65°
2026-05-05 13:38 40.89950 29.33667 310 ft 9 kts 64°
2026-05-05 13:38 40.89977 29.33740 311 ft 9 kts 64°
2026-05-05 13:38 40.90003 29.33811 314 ft 8 kts 65°
2026-05-05 13:39 40.90014 29.33843 315 ft 0 kts 66°
2026-05-05 13:42 40.90014 29.33845 315 ft 1 kts 66°
2026-05-05 13:43 40.90020 29.33892 316 ft 9 kts 101°
2026-05-05 13:43 40.89965 29.33943 316 ft 10 kts 154°
2026-05-05 13:43 40.89959 29.33947 316 ft 0 kts 155°
2026-05-05 13:44 40.89945 29.33956 316 ft 6 kts 153°
2026-05-05 13:44 40.89885 29.33995 319 ft 10 kts 155°
2026-05-05 13:45 40.89856 29.33988 319 ft 0 kts 244°
2026-05-05 13:45 40.89854 29.33983 319 ft 3 kts 244°
2026-05-05 13:45 40.89783 29.33788 313 ft 58 kts 244°
2026-05-05 13:46 40.89502 29.33023 301 ft 125 kts 244°
2026-05-05 13:46 40.89056 29.31807 432 ft 163 kts 243°
2026-05-05 13:46 40.88548 29.30461 1162 ft 166 kts 238°
2026-05-05 13:46 40.87651 29.29470 1840 ft 171 kts 211°
2026-05-05 13:47 40.86610 29.28580 2429 ft 191 kts 214°
2026-05-05 13:47 40.85415 29.27511 2761 ft 225 kts 215°
2026-05-05 13:47 40.84033 29.26273 3229 ft 250 kts 216°
2026-05-05 13:47 40.82558 29.24958 3903 ft 261 kts 216°
2026-05-05 13:48 40.81043 29.23614 4860 ft 264 kts 216°
2026-05-05 13:48 40.79513 29.22259 5788 ft 266 kts 216°
2026-05-05 13:48 40.77992 29.20915 6595 ft 270 kts 214°
2026-05-05 13:48 40.76213 29.20029 7303 ft 280 kts 185°
2026-05-05 13:49 40.74275 29.20473 7891 ft 291 kts 155°
2026-05-05 13:49 40.72441 29.21649 8626 ft 296 kts 152°
2026-05-05 13:49 40.70575 29.22835 9386 ft 300 kts 154°
2026-05-05 13:49 40.68666 29.23999 10146 ft 305 kts 154°
2026-05-05 13:50 40.66688 29.25196 10491 ft 324 kts 154°
2026-05-05 13:50 40.64565 29.26480 10718 ft 345 kts 154°
2026-05-05 13:50 40.62377 29.27803 11245 ft 354 kts 154°
2026-05-05 13:50 40.61618 29.28262 11484 ft 356 kts 154°
2026-05-05 13:51 40.60239 29.29097 11940 ft 358 kts 154°
2026-05-05 13:51 40.57968 29.30473 12747 ft 360 kts 154°
2026-05-05 13:51 40.55680 29.31859 13515 ft 364 kts 154°
2026-05-05 13:51 40.53364 29.33263 14204 ft 369 kts 155°
2026-05-05 13:52 40.51027 29.34679 14896 ft 371 kts 155°
2026-05-05 13:52 40.48672 29.36105 15583 ft 374 kts 155°
2026-05-05 13:52 40.46326 29.37525 16228 ft 378 kts 155°
2026-05-05 13:52 40.43927 29.38976 16893 ft 382 kts 155°
2026-05-05 13:53 40.41502 29.40442 17580 ft 385 kts 155°
2026-05-05 13:53 40.39058 29.41917 18246 ft 388 kts 155°
2026-05-05 13:53 40.36596 29.43403 18841 ft 391 kts 155°
2026-05-05 13:53 40.34109 29.44903 19426 ft 395 kts 156°
2026-05-05 13:54 40.31606 29.46411 20007 ft 397 kts 155°
2026-05-05 13:54 40.29086 29.47928 20570 ft 400 kts 155°
2026-05-05 13:54 40.26547 29.49456 21119 ft 403 kts 155°
2026-05-05 13:54 40.24019 29.50975 21642 ft 407 kts 155°
2026-05-05 13:55 40.21436 29.52526 22153 ft 410 kts 155°
2026-05-05 13:55 40.18833 29.54088 22677 ft 413 kts 155°
2026-05-05 13:55 40.16209 29.55662 23170 ft 417 kts 155°
2026-05-05 13:55 40.13558 29.57250 23666 ft 420 kts 155°
2026-05-05 13:56 40.10889 29.58847 24103 ft 423 kts 155°
2026-05-05 13:56 40.08210 29.60449 24538 ft 425 kts 155°
2026-05-05 13:56 40.05510 29.62062 24950 ft 428 kts 155°
2026-05-05 13:56 40.02793 29.63685 25355 ft 431 kts 156°
2026-05-05 13:57 40.00102 29.65290 25744 ft 433 kts 156°
2026-05-05 13:57 39.97348 29.66931 26139 ft 436 kts 156°
2026-05-05 13:57 39.94576 29.68582 26516 ft 439 kts 156°
2026-05-05 13:57 39.91789 29.70241 26887 ft 442 kts 156°
2026-05-05 13:58 39.88980 29.71910 27252 ft 445 kts 156°
2026-05-05 13:58 39.86148 29.73552 27645 ft 446 kts 157°
2026-05-05 13:58 39.83296 29.75162 28018 ft 449 kts 158°
2026-05-05 13:58 39.80454 29.76750 28344 ft 451 kts 158°
2026-05-05 13:59 39.74655 29.79992 29007 ft 456 kts 158°
2026-05-05 13:59 39.71733 29.81632 29344 ft 459 kts 158°
2026-05-05 14:00 39.65837 29.84944 29971 ft 464 kts 158°
2026-05-05 14:00 39.63874 29.86046 30157 ft 465 kts 158°
2026-05-05 14:00 39.60895 29.87718 30410 ft 467 kts 158°
2026-05-05 14:00 39.56897 29.89959 30746 ft 470 kts 158°
2026-05-05 14:01 39.53931 29.91619 30979 ft 472 kts 158°
2026-05-05 14:01 39.50913 29.93307 31253 ft 473 kts 158°
2026-05-05 14:01 39.47901 29.95005 31592 ft 472 kts 158°
2026-05-05 14:01 39.44896 29.96705 31960 ft 470 kts 157°
2026-05-05 14:02 39.41888 29.98340 32293 ft 469 kts 162°
2026-05-05 14:02 39.38762 29.99520 32586 ft 468 kts 168°
2026-05-05 14:02 39.36646 30.00107 32782 ft 468 kts 170°
2026-05-05 14:02 39.33460 30.00843 33284 ft 461 kts 172°
2026-05-05 14:03 39.29359 30.01732 34430 ft 442 kts 171°
2026-05-05 14:03 39.26364 30.02410 34968 ft 435 kts 171°
2026-05-05 14:03 39.23393 30.03117 35274 ft 433 kts 170°
2026-05-05 14:03 39.20447 30.03843 35679 ft 428 kts 170°
2026-05-05 14:04 39.18510 30.04327 35884 ft 427 kts 170°
2026-05-05 14:04 39.15585 30.05062 35993 ft 431 kts 170°
2026-05-05 14:04 39.09639 30.06554 36078 ft 440 kts 170°
2026-05-05 14:05 39.02571 30.08326 36186 ft 451 kts 170°
2026-05-05 14:05 38.97379 30.09664 36244 ft 458 kts 169°
2026-05-05 14:06 38.91112 30.11289 36325 ft 466 kts 170°
2026-05-05 14:06 38.84695 30.12946 36432 ft 474 kts 170°
2026-05-05 14:07 38.81465 30.13778 36569 ft 475 kts 170°
2026-05-05 14:07 38.78228 30.14610 36777 ft 474 kts 170°
2026-05-05 14:07 38.74991 30.15442 36981 ft 474 kts 170°
2026-05-05 14:07 38.71747 30.16273 36992 ft 477 kts 170°
2026-05-05 14:08 38.65274 30.17931 36997 ft 477 kts 170°
2026-05-05 14:08 38.58798 30.19587 37000 ft 472 kts 170°
2026-05-05 14:09 38.52375 30.21226 36995 ft 469 kts 170°
2026-05-05 14:09 38.45989 30.22852 37000 ft 467 kts 170°
2026-05-05 14:10 38.39663 30.24460 37008 ft 467 kts 170°
2026-05-05 14:10 38.33292 30.26077 37004 ft 468 kts 170°
2026-05-05 14:11 38.26885 30.27701 37000 ft 470 kts 170°
2026-05-05 14:11 38.20450 30.29328 36999 ft 473 kts 170°
2026-05-05 14:12 38.13984 30.30959 37005 ft 475 kts 170°
2026-05-05 14:12 38.07532 30.32584 37015 ft 477 kts 170°
2026-05-05 14:13 38.01012 30.34224 37037 ft 478 kts 170°
2026-05-05 14:13 37.94488 30.35863 37051 ft 478 kts 171°
2026-05-05 14:14 37.87952 30.37501 37045 ft 478 kts 171°
2026-05-05 14:14 37.81476 30.39120 37047 ft 478 kts 171°
2026-05-05 14:15 37.74956 30.40747 37039 ft 477 kts 171°
2026-05-05 14:15 37.68435 30.42372 37022 ft 477 kts 171°
2026-05-05 14:16 37.61947 30.43987 37001 ft 475 kts 171°
2026-05-05 14:16 37.55501 30.45588 36980 ft 474 kts 171°
2026-05-05 14:17 37.49057 30.47185 36968 ft 473 kts 171°
2026-05-05 14:17 37.42586 30.48787 36961 ft 472 kts 171°
2026-05-05 14:18 37.36151 30.50376 36963 ft 471 kts 171°
2026-05-05 14:18 37.29712 30.51963 36964 ft 472 kts 171°
2026-05-05 14:19 37.23304 30.53540 36960 ft 473 kts 171°
2026-05-05 14:19 37.16844 30.55127 36954 ft 474 kts 171°
2026-05-05 14:20 37.10369 30.56716 36960 ft 475 kts 171°
2026-05-05 14:20 37.03921 30.58295 36959 ft 476 kts 171°
2026-05-05 14:21 36.97420 30.59885 36958 ft 477 kts 172°
2026-05-05 14:21 36.90903 30.61476 36966 ft 477 kts 172°
2026-05-05 14:22 36.84380 30.63064 36968 ft 478 kts 172°
2026-05-05 14:22 36.77887 30.64642 36960 ft 479 kts 172°
2026-05-05 14:23 36.72411 30.65972 36958 ft 479 kts 172°
2026-05-05 14:23 36.64806 30.67816 36957 ft 479 kts 172°
2026-05-05 14:24 36.58265 30.69398 36955 ft 479 kts 172°
2026-05-05 14:24 36.51733 30.70976 36960 ft 478 kts 172°
2026-05-05 14:25 36.45247 30.72541 36955 ft 478 kts 172°
2026-05-05 14:25 36.38723 30.74111 36963 ft 477 kts 172°
2026-05-05 14:26 36.32213 30.75674 36955 ft 477 kts 172°
2026-05-05 14:26 36.25708 30.77235 36973 ft 476 kts 172°
2026-05-05 14:27 36.19251 30.78781 36971 ft 475 kts 172°
2026-05-05 14:27 36.12755 30.80334 36976 ft 475 kts 172°
2026-05-05 14:28 36.06266 30.81883 36981 ft 475 kts 172°
2026-05-05 14:28 35.99746 30.82803 36992 ft 470 kts 181°
2026-05-05 14:29 35.93261 30.83130 36987 ft 470 kts 182°
2026-05-05 14:29 35.86728 30.83472 36986 ft 470 kts 181°
2026-05-05 14:30 35.80192 30.83863 36988 ft 470 kts 181°
2026-05-05 14:30 35.73650 30.84268 36991 ft 471 kts 181°
2026-05-05 14:31 35.67159 30.84667 36995 ft 471 kts 181°
2026-05-05 14:31 35.60615 30.85061 36994 ft 471 kts 182°
2026-05-05 14:32 35.54076 30.85307 36993 ft 470 kts 183°
2026-05-05 14:32 35.47537 30.85498 36993 ft 470 kts 183°
2026-05-05 14:33 35.41048 30.85706 36999 ft 470 kts 183°
2026-05-05 14:33 35.34507 30.85929 37000 ft 470 kts 183°
2026-05-05 14:34 35.27980 30.86153 36997 ft 469 kts 183°
2026-05-05 14:34 35.21458 30.86376 37000 ft 469 kts 183°
2026-05-05 14:35 35.14923 30.86596 37001 ft 469 kts 183°
2026-05-05 14:35 35.08455 30.86804 37002 ft 468 kts 183°
2026-05-05 14:36 35.01936 30.87012 37002 ft 468 kts 183°
2026-05-05 14:36 34.95433 30.87220 37001 ft 468 kts 183°
2026-05-05 14:37 34.88932 30.87429 36999 ft 467 kts 183°
2026-05-05 14:37 34.82475 30.87636 37001 ft 467 kts 183°
2026-05-05 14:38 34.75985 30.87844 37005 ft 466 kts 183°
2026-05-05 14:38 34.69500 30.88051 37006 ft 466 kts 184°
2026-05-05 14:39 34.63019 30.88258 37003 ft 465 kts 184°
2026-05-05 14:39 34.56594 30.88524 37011 ft 466 kts 182°
2026-05-05 14:40 34.50115 30.88875 37007 ft 465 kts 182°
2026-05-05 14:40 34.43664 30.89218 37011 ft 465 kts 183°
2026-05-05 14:41 34.37200 30.89548 37019 ft 464 kts 183°
2026-05-05 14:41 34.30799 30.89871 37015 ft 464 kts 183°
2026-05-05 14:42 34.24351 30.90197 37017 ft 463 kts 183°
2026-05-05 14:42 34.17905 30.90546 37020 ft 463 kts 183°
2026-05-05 14:43 34.11473 30.90907 37019 ft 463 kts 183°
2026-05-05 14:43 34.05084 30.91261 37021 ft 463 kts 183°
2026-05-05 14:44 33.98657 30.91615 37022 ft 462 kts 183°
2026-05-05 14:44 33.92232 30.91947 37020 ft 461 kts 184°
2026-05-05 14:45 33.85817 30.92185 37025 ft 461 kts 185°
2026-05-05 14:45 33.79462 30.92406 37022 ft 460 kts 185°
2026-05-05 14:46 33.73058 30.92640 37023 ft 460 kts 185°
2026-05-05 14:46 33.66664 30.92880 37024 ft 460 kts 185°
2026-05-05 14:47 33.60274 30.93121 37028 ft 459 kts 185°
2026-05-05 14:47 33.53932 30.93360 37023 ft 459 kts 185°
2026-05-05 14:48 33.47548 30.93599 37030 ft 459 kts 185°
2026-05-05 14:48 33.41161 30.93838 37033 ft 459 kts 185°
2026-05-05 14:49 33.34770 30.94077 37030 ft 459 kts 185°
2026-05-05 14:49 33.28381 30.94315 37034 ft 459 kts 186°
2026-05-05 14:50 33.21992 30.94554 37033 ft 459 kts 186°
2026-05-05 14:50 33.15648 30.94790 37036 ft 459 kts 186°
2026-05-05 14:51 33.09255 30.95047 37040 ft 461 kts 184°
2026-05-05 14:51 33.02846 30.95677 37046 ft 463 kts 181°
2026-05-05 14:52 32.96427 30.96465 37045 ft 464 kts 181°
2026-05-05 14:52 32.90050 30.97222 37046 ft 463 kts 182°
2026-05-05 14:53 32.83632 30.97948 37046 ft 463 kts 182°
2026-05-05 14:53 32.77219 30.98661 37046 ft 463 kts 182°
2026-05-05 14:54 32.70812 30.99371 37044 ft 462 kts 182°
2026-05-05 14:54 32.64453 31.00075 37056 ft 462 kts 182°
2026-05-05 14:55 32.58057 31.00784 37062 ft 461 kts 182°
2026-05-05 14:55 32.51665 31.01491 37054 ft 461 kts 182°
2026-05-05 14:56 32.45275 31.02198 37059 ft 461 kts 182°
2026-05-05 14:56 32.38893 31.02902 37060 ft 460 kts 182°
2026-05-05 14:57 32.32565 31.03599 37061 ft 460 kts 182°
2026-05-05 14:57 32.26196 31.04300 37063 ft 459 kts 183°
2026-05-05 14:58 32.19835 31.04999 37066 ft 459 kts 183°
2026-05-05 14:58 32.13483 31.05696 37068 ft 458 kts 183°
2026-05-05 14:59 32.08211 31.06273 37067 ft 458 kts 183°
2026-05-05 14:59 32.00845 31.07079 37069 ft 457 kts 183°
2026-05-05 15:00 31.95586 31.07655 37069 ft 456 kts 183°
2026-05-05 15:00 31.88198 31.08462 37072 ft 456 kts 183°
2026-05-05 15:01 31.81891 31.09150 37067 ft 455 kts 184°
2026-05-05 15:01 31.75632 31.09831 37076 ft 454 kts 184°
2026-05-05 15:02 31.69340 31.10516 37079 ft 454 kts 184°
2026-05-05 15:02 31.63053 31.11199 37072 ft 454 kts 184°
2026-05-05 15:03 31.56768 31.11919 37071 ft 457 kts 179°
2026-05-05 15:03 31.53631 31.12803 37075 ft 469 kts 169°
2026-05-05 15:03 31.50636 31.14248 37072 ft 478 kts 160°
2026-05-05 15:04 31.45000 31.18587 37078 ft 488 kts 151°
2026-05-05 15:04 31.39512 31.23269 37084 ft 488 kts 151°
2026-05-05 15:05 31.31242 31.30224 37077 ft 487 kts 152°
2026-05-05 15:06 31.25745 31.34765 37074 ft 487 kts 152°
2026-05-05 15:06 31.20199 31.39327 37075 ft 487 kts 152°
2026-05-05 15:07 31.14654 31.43883 37072 ft 487 kts 152°
2026-05-05 15:07 31.09111 31.48434 37070 ft 487 kts 152°
2026-05-05 15:08 31.03596 31.52957 37071 ft 487 kts 152°
2026-05-05 15:08 30.98060 31.57491 37069 ft 487 kts 152°
2026-05-05 15:09 30.92516 31.62024 37066 ft 486 kts 152°
2026-05-05 15:09 30.86980 31.66545 37066 ft 486 kts 152°
2026-05-05 15:10 30.81488 31.71023 37066 ft 485 kts 152°
2026-05-05 15:10 30.75959 31.75524 37065 ft 485 kts 153°
2026-05-05 15:11 30.70440 31.80011 37060 ft 484 kts 153°
2026-05-05 15:11 30.64918 31.84495 37069 ft 484 kts 153°
2026-05-05 15:12 30.59439 31.88936 37071 ft 483 kts 153°
2026-05-05 15:12 30.53924 31.93401 37053 ft 483 kts 153°
2026-05-05 15:13 30.48404 31.97864 37061 ft 483 kts 153°
2026-05-05 15:13 30.42924 32.02288 37059 ft 483 kts 153°
2026-05-05 15:14 30.37410 32.06733 37056 ft 483 kts 153°
2026-05-05 15:14 30.31905 32.11165 37051 ft 482 kts 153°
2026-05-05 15:15 30.26392 32.15596 37054 ft 482 kts 153°
2026-05-05 15:15 30.20923 32.19987 37057 ft 482 kts 153°
2026-05-05 15:16 30.15413 32.24405 37057 ft 482 kts 153°
2026-05-05 15:16 30.09906 32.28814 37052 ft 481 kts 153°
2026-05-05 15:17 30.04434 32.33189 37048 ft 481 kts 153°
2026-05-05 15:17 29.98944 32.37573 37052 ft 480 kts 153°
2026-05-05 15:18 29.93441 32.41960 37034 ft 480 kts 153°
2026-05-05 15:18 29.87958 32.46326 37048 ft 479 kts 153°
2026-05-05 15:19 29.82475 32.50686 37047 ft 479 kts 153°
2026-05-05 15:19 29.77025 32.55013 37039 ft 479 kts 153°
2026-05-05 15:20 29.71543 32.59361 37044 ft 479 kts 153°
2026-05-05 15:20 29.66059 32.63707 37036 ft 478 kts 153°
2026-05-05 15:21 29.60649 32.68184 37028 ft 485 kts 146°
2026-05-05 15:21 29.58272 32.70903 37034 ft 494 kts 135°
2026-05-05 15:21 29.56155 32.74029 37049 ft 496 kts 133°
2026-05-05 15:22 29.52062 32.80415 37027 ft 497 kts 132°
2026-05-05 15:22 29.47964 32.86796 37011 ft 496 kts 133°
2026-05-05 15:22 29.45894 32.89972 36740 ft 497 kts 133°
2026-05-05 15:23 29.43822 32.93130 36479 ft 494 kts 133°
2026-05-05 15:23 29.41753 32.96272 36222 ft 492 kts 133°
2026-05-05 15:23 29.39715 32.99357 35994 ft 493 kts 133°
2026-05-05 15:23 29.37636 33.02500 35746 ft 494 kts 133°
2026-05-05 15:24 29.35556 33.05642 35506 ft 495 kts 133°
2026-05-05 15:24 29.33477 33.08785 35266 ft 495 kts 133°
2026-05-05 15:24 29.31397 33.11926 35029 ft 496 kts 133°
2026-05-05 15:24 29.29311 33.15077 34797 ft 496 kts 133°
2026-05-05 15:25 29.27223 33.18227 34563 ft 497 kts 133°
2026-05-05 15:25 29.25162 33.21336 34332 ft 497 kts 133°
2026-05-05 15:25 29.23069 33.24491 34100 ft 497 kts 133°
2026-05-05 15:25 29.20977 33.27641 33845 ft 497 kts 133°
2026-05-05 15:26 29.18883 33.30792 33585 ft 497 kts 133°
2026-05-05 15:26 29.16790 33.33939 33314 ft 497 kts 133°
2026-05-05 15:26 29.14695 33.37086 32630 ft 498 kts 133°
2026-05-05 15:26 29.12599 33.40233 32026 ft 496 kts 133°
2026-05-05 15:27 29.10539 33.43323 31493 ft 494 kts 133°
2026-05-05 15:27 29.08465 33.46436 31025 ft 490 kts 132°
2026-05-05 15:27 29.06404 33.49524 30546 ft 487 kts 132°
2026-05-05 15:27 29.04355 33.52593 30078 ft 484 kts 132°
2026-05-05 15:28 29.02323 33.55631 29531 ft 480 kts 132°
2026-05-05 15:28 29.00302 33.58652 29012 ft 476 kts 132°
2026-05-05 15:28 28.98302 33.61640 28541 ft 472 kts 132°
2026-05-05 15:28 28.96316 33.64605 28042 ft 468 kts 132°
2026-05-05 15:29 28.94375 33.67500 27576 ft 464 kts 133°
2026-05-05 15:29 28.92416 33.70418 27091 ft 461 kts 133°
2026-05-05 15:29 28.90473 33.73311 26610 ft 458 kts 132°
2026-05-05 15:29 28.88541 33.76187 26156 ft 455 kts 133°
2026-05-05 15:30 28.86619 33.79044 25690 ft 455 kts 132°
2026-05-05 15:30 28.84656 33.81872 25222 ft 451 kts 138°
2026-05-05 15:30 28.82381 33.84264 24759 ft 441 kts 147°
2026-05-05 15:30 28.79986 33.86418 24295 ft 437 kts 148°
2026-05-05 15:31 28.77590 33.88539 23828 ft 436 kts 148°
2026-05-05 15:31 28.75253 33.90668 23326 ft 435 kts 147°
2026-05-05 15:31 28.72918 33.92849 22809 ft 433 kts 146°
2026-05-05 15:31 28.70604 33.95033 22333 ft 430 kts 146°
2026-05-05 15:32 28.68312 33.97195 21866 ft 427 kts 146°
2026-05-05 15:32 28.66031 33.99343 21402 ft 423 kts 146°
2026-05-05 15:32 28.63771 34.01466 20965 ft 420 kts 146°
2026-05-05 15:32 28.61519 34.03580 20503 ft 418 kts 146°
2026-05-05 15:33 28.59285 34.05675 20040 ft 415 kts 146°
2026-05-05 15:33 28.57095 34.07729 19601 ft 412 kts 146°
2026-05-05 15:33 28.54887 34.09799 19166 ft 410 kts 146°
2026-05-05 15:33 28.53433 34.11162 18875 ft 408 kts 146°
2026-05-05 15:34 28.50512 34.13895 18280 ft 406 kts 146°
2026-05-05 15:34 28.48237 34.15725 17733 ft 395 kts 160°
2026-05-05 15:34 28.45680 34.16600 17349 ft 376 kts 179°
2026-05-05 15:34 28.43124 34.16642 16929 ft 361 kts 194°
2026-05-05 15:35 28.40737 34.15970 16508 ft 349 kts 204°
2026-05-05 15:35 28.38490 34.15094 16107 ft 344 kts 206°
2026-05-05 15:35 28.36240 34.14184 15685 ft 342 kts 206°
2026-05-05 15:35 28.33995 34.13298 15261 ft 341 kts 205°
2026-05-05 15:36 28.31753 34.12434 14855 ft 341 kts 205°
2026-05-05 15:36 28.29502 34.11575 14403 ft 341 kts 204°
2026-05-05 15:36 28.27264 34.10728 13978 ft 339 kts 205°
2026-05-05 15:36 28.25028 34.09876 13536 ft 337 kts 204°
2026-05-05 15:37 28.22811 34.09032 13119 ft 335 kts 204°
2026-05-05 15:37 28.20605 34.08193 12697 ft 334 kts 204°
2026-05-05 15:37 28.18433 34.07368 12285 ft 332 kts 204°
2026-05-05 15:37 28.16258 34.06546 11964 ft 329 kts 204°
2026-05-05 15:38 28.14090 34.05729 11644 ft 327 kts 203°
2026-05-05 15:38 28.11937 34.04912 11264 ft 326 kts 204°
2026-05-05 15:38 28.09785 34.04094 10917 ft 326 kts 203°
2026-05-05 15:38 28.07632 34.03275 10563 ft 325 kts 203°
2026-05-05 15:39 28.05522 34.02473 10444 ft 315 kts 203°
2026-05-05 15:39 28.03498 34.01704 10309 ft 306 kts 203°
2026-05-05 15:39 28.01513 34.00952 10183 ft 297 kts 204°
2026-05-05 15:39 27.99565 34.00220 9898 ft 295 kts 204°
2026-05-05 15:40 27.97631 33.99501 9500 ft 290 kts 200°
2026-05-05 15:40 27.95616 33.99333 9078 ft 295 kts 174°
2026-05-05 15:40 27.93694 34.00191 8723 ft 304 kts 148°
2026-05-05 15:40 27.92113 34.01798 8370 ft 308 kts 136°
2026-05-05 15:41 27.90639 34.03553 8085 ft 307 kts 135°
2026-05-05 15:41 27.89193 34.05304 7830 ft 304 kts 134°
2026-05-05 15:41 27.87744 34.07058 7477 ft 305 kts 134°
2026-05-05 15:41 27.86321 34.08772 7264 ft 301 kts 134°
2026-05-05 15:42 27.84881 34.10488 6922 ft 302 kts 134°
2026-05-05 15:42 27.83436 34.12193 6585 ft 299 kts 134°
2026-05-05 15:42 27.81984 34.13868 6077 ft 298 kts 134°
2026-05-05 15:42 27.80523 34.15525 5541 ft 297 kts 134°
2026-05-05 15:43 27.79151 34.17244 5003 ft 293 kts 119°
2026-05-05 15:43 27.78509 34.19357 4522 ft 282 kts 89°
2026-05-05 15:43 27.78947 34.21437 4120 ft 269 kts 56°
2026-05-05 15:43 27.80252 34.22781 3889 ft 253 kts 24°
2026-05-05 15:44 27.81822 34.23575 3658 ft 244 kts 26°
2026-05-05 15:44 27.83281 34.24505 3388 ft 237 kts 32°
2026-05-05 15:44 27.84621 34.25575 3207 ft 232 kts 36°
2026-05-05 15:44 27.85840 34.26710 3004 ft 224 kts 40°
2026-05-05 15:45 27.86946 34.27860 2719 ft 213 kts 41°
2026-05-05 15:45 27.88005 34.28978 2431 ft 203 kts 42°
2026-05-05 15:45 27.89013 34.30039 2189 ft 195 kts 42°
2026-05-05 15:45 27.89975 34.31050 1947 ft 184 kts 41°
2026-05-05 15:46 27.90883 34.32003 1716 ft 173 kts 40°
2026-05-05 15:46 27.91718 34.32878 1525 ft 156 kts 40°
2026-05-05 15:46 27.92498 34.33690 1301 ft 148 kts 41°
2026-05-05 15:46 27.93250 34.34478 1117 ft 150 kts 42°
2026-05-05 15:47 27.94029 34.35301 939 ft 154 kts 40°
2026-05-05 15:47 27.94548 34.35842 812 ft 152 kts 41°
2026-05-05 15:47 27.95562 34.36908 523 ft 151 kts 39°
2026-05-05 15:47 27.96334 34.37714 318 ft 149 kts 40°
2026-05-05 15:48 27.97089 34.38505 176 ft 144 kts 40°
2026-05-05 15:48 27.97704 34.39144 172 ft 90 kts 42°
2026-05-05 15:48 27.98007 34.39458 174 ft 32 kts 43°
2026-05-05 15:48 27.98107 34.39565 173 ft 11 kts 40°
2026-05-05 15:49 27.98169 34.39542 173 ft 10 kts 315°
2026-05-05 15:49 27.98217 34.39485 172 ft 10 kts 312°
2026-05-05 15:49 27.98251 34.39419 171 ft 11 kts 253°
2026-05-05 15:49 27.98192 34.39349 171 ft 15 kts 224°
2026-05-05 15:50 27.98097 34.39248 171 ft 22 kts 223°
2026-05-05 15:50 27.97982 34.39129 171 ft 22 kts 223°
2026-05-05 15:50 27.97879 34.39020 171 ft 14 kts 226°
2026-05-05 15:50 27.97900 34.38950 171 ft 10 kts 313°
2026-05-05 15:51 27.97947 34.38893 171 ft 10 kts 313°
2026-05-05 15:51 27.97986 34.38833 171 ft 9 kts 275°
2026-05-05 15:51 27.97945 34.38773 171 ft 12 kts 223°
2026-05-05 15:51 27.97883 34.38707 171 ft 12 kts 224°
2026-05-05 15:52 27.97821 34.38642 171 ft 12 kts 221°
2026-05-05 15:52 27.97765 34.38587 171 ft 7 kts 222°
2026-05-05 15:52 27.97730 34.38581 171 ft 5 kts 134°
2026-05-05 15:52 27.97709 34.38607 171 ft 1 kts 133°
2026-05-05 15:53 27.97708 34.38608 171 ft 0 kts 133°